Location: Cul de Sac
(18.0387°N, 63.0654°W)
Time: 06:50:31
(UTC+00:00)

SEDSat Delta rocket - Pass Details

Date: 29 October 2020
Orbit: 533 x 1000 km, 31.4° (Epoch: 28 November)

Event Time Altitude Azimuth Distance (km) Brightness Sun altitude
Rises 21:56:33 0° 237° (WSW) 3,681 8.6 -4.4°
Reaches altitude 10° 21:59:14 10° 235° (SW) 2,750 7.7 -5.0°
Maximum altitude 22:06:00 76° 151° (SSE) 1,015 4.1 -6.6°
Drops below altitude 10° 22:12:34 10° 66° (ENE) 2,663 5.6 -8.1°
Enters shadow 22:12:50 - 66° (ENE) 2,754 5.7 -8.2°
